Tracking 19709 objects as of 19-Jun-2019
HD Live streaming from Space Station
objects crossing your sky now

METEOR 2-8 DEB

Track METEOR 2-8 DEB now!
10-day predictions


NORAD ID: 36862
Int'l Code: 1982-025AZ
Perigee: 862.8 km
Apogee: 889.8 km
Inclination: 82.6 °
Period: 102.3 minutes
Semi major axis: 7247 km
RCS: 0.0072 m2 (small)
Launch date: March 25, 1982
Source: Commonwealth of Independent States (former USSR) (CIS)
Launch site: PLESETSK MISSILE AND SPACE COMPLEX (PKMTR)

Note: This is SATELLITE DEBRIS
aabbcc
Your satellite tracking list
Your tracking list is empty




NASA's NSSDC Master Catalog

Two Line Element Set (TLE):
1 36862U 82025AZ  19117.13611059 -.00000514  00000-0 -31622-3 0  9996
2 36862  82.5565 258.2514 0018631 333.3119  26.7093 14.07146462661989
Source of the keplerian elements: AFSPC